timestamp,wind_dir_avg,wind_spd_avg,wind_spd_max_dir,wind_spd_gust,battery_voltage,lat,long
2019-12-28 00:04:01+00:00,323.0,3.91,323.0,4.96,12.57,47.59359,-54.27349
2019-12-28 00:14:01+00:00,321.0,4.39,322.0,4.98,12.57,47.59359,-54.27349
2019-12-28 00:24:01+00:00,307.0,4.33,310.0,5.07,12.57,47.59359,-54.27349
2019-12-28 00:34:01+00:00,302.0,4.36,301.0,4.76,12.57,47.59359,-54.27349
2019-12-28 00:44:01+00:00,321.0,4.06,310.0,4.8,12.57,47.59359,-54.27349
2019-12-28 00:54:01+00:00,307.0,3.52,304.0,4.1,12.57,47.59359,-54.27349
2019-12-28 01:04:01+00:00,333.0,3.7,336.0,4.23,12.57,47.59359,-54.27349
2019-12-28 01:14:01+00:00,320.0,3.21,313.0,3.78,12.57,47.59359,-54.27349
2019-12-28 01:24:01+00:00,315.0,2.43,320.0,2.95,12.57,47.59359,-54.27349
2019-12-28 01:34:01+00:00,323.0,1.91,331.0,2.58,12.57,47.59359,-54.27349
2019-12-28 01:44:01+00:00,347.0,1.94,330.0,2.67,12.57,47.59359,-54.27349
2019-12-28 01:54:01+00:00,317.0,3.24,307.0,4.11,12.57,47.59359,-54.27349
2019-12-28 02:04:01+00:00,324.0,2.77,317.0,3.47,12.57,47.59359,-54.27349
2019-12-28 02:14:01+00:00,309.0,3.73,301.0,4.56,12.49,47.59359,-54.27349
2019-12-28 02:24:01+00:00,283.0,4.01,287.0,4.55,12.49,47.59359,-54.27349
2019-12-28 02:34:01+00:00,284.0,2.73,278.0,3.54,12.49,47.59359,-54.27349
2019-12-28 02:44:01+00:00,301.0,2.2,298.0,2.84,12.49,47.59359,-54.27349
2019-12-28 02:54:01+00:00,288.0,1.88,293.0,2.46,12.49,47.59359,-54.27349
2019-12-28 03:04:01+00:00,302.0,1.51,304.0,1.96,12.49,47.59359,-54.27349
2019-12-28 03:14:01+00:00,315.0,1.2,317.0,2.1,12.49,47.59359,-54.27349
2019-12-28 03:24:01+00:00,296.0,0.69,293.0,0.99,12.49,47.59359,-54.27349
2019-12-28 03:34:01+00:00,20.0,2.87,29.0,3.66,12.49,47.59359,-54.27349
2019-12-28 03:44:01+00:00,35.0,1.83,28.0,2.45,12.49,47.59359,-54.27349
2019-12-28 03:54:01+00:00,33.0,1.86,40.0,2.52,12.49,47.59359,-54.27349
2019-12-28 04:04:01+00:00,7.0,2.1,359.0,3.02,12.49,47.59359,-54.27349
2019-12-28 04:14:01+00:00,8.0,1.85,359.0,2.5,12.49,47.59359,-54.27349
2019-12-28 04:24:01+00:00,19.0,2.69,16.0,3.37,12.49,47.59359,-54.27349
2019-12-28 04:34:01+00:00,21.0,2.28,17.0,2.9,12.49,47.59359,-54.27349
2019-12-28 04:44:01+00:00,24.0,1.18,33.0,1.59,12.49,47.59359,-54.27349
2019-12-28 04:54:01+00:00,359.0,0.97,346.0,1.24,12.49,47.59359,-54.27349
2019-12-28 05:04:01+00:00,38.0,1.45,13.0,2.03,12.49,47.59359,-54.27349
2019-12-28 05:14:01+00:00,105.0,1.0,103.0,1.17,12.49,47.59359,-54.27349
2019-12-28 05:24:01+00:00,105.0,1.02,110.0,1.33,12.49,47.59359,-54.27349
2019-12-28 05:34:01+00:00,101.0,1.73,105.0,1.98,12.49,47.59359,-54.27349
2019-12-28 05:44:01+00:00,78.0,1.35,77.0,1.61,12.49,47.59359,-54.27349
2019-12-28 05:54:01+00:00,78.0,1.48,75.0,2.5,12.49,47.59359,-54.27349
2019-12-28 06:04:01+00:00,136.0,2.84,129.0,3.53,12.49,47.59359,-54.27349
2019-12-28 06:14:01+00:00,149.0,2.22,139.0,2.92,12.41,47.59359,-54.27349
2019-12-28 06:24:01+00:00,172.0,2.21,172.0,2.85,12.41,47.59359,-54.27349
2019-12-28 06:34:01+00:00,185.0,2.28,192.0,3.08,12.41,47.59359,-54.27349
2019-12-28 06:44:01+00:00,208.0,4.49,211.0,4.93,12.41,47.59359,-54.27349
2019-12-28 06:54:01+00:00,199.0,4.19,199.0,5.09,12.41,47.59359,-54.27349
2019-12-28 07:04:01+00:00,180.0,4.29,183.0,5.02,12.41,47.59359,-54.27349
2019-12-28 07:14:01+00:00,163.0,3.2,175.0,3.83,12.41,47.59359,-54.27349
2019-12-28 07:24:01+00:00,180.0,3.25,183.0,4.05,12.41,47.59359,-54.27349
2019-12-28 07:34:01+00:00,175.0,4.56,179.0,5.34,12.41,47.59359,-54.27349
2019-12-28 07:44:01+00:00,180.0,4.98,182.0,5.46,12.41,47.59359,-54.27349
2019-12-28 07:54:01+00:00,188.0,4.26,195.0,4.87,12.41,47.59359,-54.27349
2019-12-28 08:04:01+00:00,190.0,3.88,192.0,4.79,12.41,47.59359,-54.27349
2019-12-28 08:14:01+00:00,191.0,3.23,191.0,4.08,12.41,47.59359,-54.27349
2019-12-28 08:24:01+00:00,163.0,4.55,167.0,5.09,12.41,47.59359,-54.27349
2019-12-28 08:34:01+00:00,168.0,4.77,167.0,5.3,12.41,47.59359,-54.27349
2019-12-28 08:44:01+00:00,176.0,5.93,178.0,6.81,12.41,47.59359,-54.27349
2019-12-28 08:54:01+00:00,175.0,5.01,173.0,5.65,12.41,47.59359,-54.27349
2019-12-28 09:04:01+00:00,168.0,5.67,172.0,6.41,12.41,47.59359,-54.27349
2019-12-28 09:14:01+00:00,169.0,5.19,175.0,5.86,12.41,47.59359,-54.27349
2019-12-28 09:24:01+00:00,171.0,4.76,179.0,5.32,12.41,47.59359,-54.27349
2019-12-28 09:34:01+00:00,172.0,5.03,172.0,5.44,12.41,47.59359,-54.27349
2019-12-28 09:44:01+00:00,172.0,5.36,175.0,5.96,12.41,47.59359,-54.27349
2019-12-28 09:54:01+00:00,177.0,5.63,177.0,6.58,12.41,47.59359,-54.27349
2019-12-28 10:04:01+00:00,183.0,5.43,179.0,6.12,12.41,47.59359,-54.27349
2019-12-28 10:14:01+00:00,184.0,4.35,190.0,4.9,12.41,47.59359,-54.27349
2019-12-28 10:24:01+00:00,183.0,4.35,184.0,4.64,12.41,47.59359,-54.27349
2019-12-28 10:34:01+00:00,193.0,6.05,198.0,6.84,12.41,47.59359,-54.27349
2019-12-28 10:44:01+00:00,201.0,5.92,195.0,6.51,12.41,47.59359,-54.27349
2019-12-28 10:54:01+00:00,198.0,6.64,199.0,7.49,12.41,47.59359,-54.27349
2019-12-28 11:04:01+00:00,197.0,5.45,202.0,6.24,12.41,47.59359,-54.27349
2019-12-28 11:14:01+00:00,192.0,5.64,198.0,6.48,12.41,47.59359,-54.27349
2019-12-28 11:24:01+00:00,190.0,5.63,194.0,6.34,12.41,47.59359,-54.27349
2019-12-28 11:34:01+00:00,182.0,7.11,179.0,9.22,12.41,47.59359,-54.27349
2019-12-28 11:44:01+00:00,193.0,7.47,189.0,8.42,12.41,47.59359,-54.27349
2019-12-28 11:54:01+00:00,184.0,7.13,188.0,7.96,12.41,47.59359,-54.27349
2019-12-28 12:04:01+00:00,185.0,6.71,193.0,7.52,12.41,47.59359,-54.27349
2019-12-28 12:14:01+00:00,179.0,6.54,,,,47.59359,-54.27349
2019-12-28 12:24:01+00:00,180.0,7.17,,,,47.59359,-54.27349
2019-12-28 12:34:01+00:00,178.0,6.2,,,,47.59359,-54.27349
2019-12-28 12:44:01+00:00,172.0,7.06,,,,47.59359,-54.27349
2019-12-28 12:54:01+00:00,171.0,6.07,,,,47.59359,-54.27349
2019-12-28 13:04:01+00:00,178.0,6.2,,,,47.59359,-54.27349
2019-12-28 13:14:01+00:00,174.0,6.44,179.0,7.32,12.41,47.59359,-54.27349
2019-12-28 13:24:01+00:00,169.0,7.32,172.0,8.26,12.41,47.59359,-54.27349
2019-12-28 13:34:01+00:00,170.0,7.49,167.0,8.15,12.41,47.59359,-54.27349
2019-12-28 13:44:01+00:00,171.0,7.52,167.0,8.93,12.41,47.59359,-54.27349
2019-12-28 13:54:01+00:00,170.0,6.73,173.0,7.76,12.41,47.59359,-54.27349
2019-12-28 14:04:01+00:00,172.0,7.32,168.0,8.78,12.41,47.59359,-54.27349
2019-12-28 14:14:01+00:00,170.0,7.55,166.0,8.22,12.65,47.59359,-54.27349
2019-12-28 14:24:01+00:00,161.0,7.27,150.0,8.15,12.65,47.59359,-54.27349
2019-12-28 14:34:01+00:00,162.0,6.89,158.0,8.0,12.65,47.59359,-54.27349
2019-12-28 14:44:01+00:00,164.0,5.7,166.0,6.62,12.65,47.59359,-54.27349
2019-12-28 14:54:01+00:00,158.0,4.65,161.0,6.55,12.65,47.59359,-54.27349
2019-12-28 15:04:01+00:00,167.0,6.82,169.0,7.49,12.65,47.59359,-54.27349
2019-12-28 16:14:01+00:00,165.0,6.13,160.0,7.14,13.68,47.59359,-54.27349
2019-12-28 16:24:01+00:00,166.0,5.79,168.0,6.7,13.68,47.59359,-54.27349
2019-12-28 16:34:01+00:00,171.0,5.51,169.0,6.57,13.68,47.59359,-54.27349
2019-12-28 16:44:01+00:00,158.0,5.27,166.0,5.64,13.68,47.59359,-54.27349
2019-12-28 16:54:01+00:00,155.0,4.63,160.0,5.56,13.68,47.59359,-54.27349
2019-12-28 17:04:01+00:00,153.0,5.93,160.0,7.0,13.68,47.59359,-54.27349
2019-12-28 17:14:01+00:00,158.0,4.51,155.0,6.06,13.53,47.59359,-54.27349
2019-12-28 17:24:01+00:00,157.0,5.1,160.0,6.06,13.53,47.59359,-54.27349
2019-12-28 17:34:01+00:00,159.0,5.14,147.0,5.96,13.53,47.59359,-54.27349
2019-12-28 17:44:01+00:00,166.0,4.27,163.0,5.22,13.53,47.59359,-54.27349
2019-12-28 17:54:01+00:00,172.0,3.45,174.0,4.24,13.53,47.59359,-54.27349
2019-12-28 18:04:01+00:00,176.0,3.28,178.0,4.24,13.53,47.59359,-54.27349
2019-12-28 18:14:01+00:00,158.0,4.24,157.0,4.94,13.37,47.59359,-54.27349
2019-12-28 18:24:01+00:00,182.0,3.46,182.0,4.1,13.37,47.59359,-54.27349
2019-12-28 18:34:01+00:00,175.0,2.83,174.0,3.09,13.37,47.59359,-54.27349
2019-12-28 18:44:01+00:00,171.0,2.77,179.0,3.3,13.37,47.59359,-54.27349
2019-12-28 18:54:01+00:00,182.0,3.64,177.0,4.39,13.37,47.59359,-54.27349
2019-12-28 19:04:01+00:00,187.0,2.97,193.0,3.53,13.37,47.59359,-54.27349
2019-12-28 19:14:01+00:00,180.0,3.73,182.0,4.32,12.89,47.59359,-54.27349
2019-12-28 19:24:01+00:00,168.0,2.71,164.0,2.98,12.89,47.59359,-54.27349
2019-12-28 19:34:01+00:00,174.0,2.36,179.0,2.64,12.89,47.59359,-54.27349
2019-12-28 19:44:01+00:00,162.0,2.68,160.0,2.9,12.89,47.59359,-54.27349
2019-12-28 19:54:01+00:00,136.0,2.46,143.0,2.83,12.89,47.59359,-54.27349
2019-12-28 20:04:01+00:00,166.0,2.79,172.0,3.08,12.89,47.59359,-54.27349
2019-12-28 20:14:01+00:00,176.0,2.97,177.0,3.22,12.65,47.59359,-54.27349
2019-12-28 20:24:01+00:00,170.0,2.98,171.0,3.24,12.65,47.59359,-54.27349
2019-12-28 20:34:01+00:00,178.0,3.17,178.0,3.66,12.65,47.59359,-54.27349
2019-12-28 20:44:01+00:00,183.0,3.47,180.0,3.74,12.65,47.59359,-54.27349
2019-12-28 20:54:01+00:00,181.0,3.14,180.0,3.42,12.65,47.59359,-54.27349
2019-12-28 21:04:01+00:00,178.0,3.07,183.0,3.51,12.65,47.59359,-54.27349
2019-12-28 21:14:01+00:00,185.0,2.4,185.0,2.72,12.65,47.59359,-54.27349
2019-12-28 21:24:01+00:00,190.0,1.71,185.0,2.02,12.65,47.59359,-54.27349
2019-12-28 21:34:01+00:00,268.0,2.33,270.0,2.76,12.65,47.59359,-54.27349
2019-12-28 21:44:01+00:00,276.0,3.05,277.0,3.31,12.65,47.59359,-54.27349
2019-12-28 21:54:01+00:00,266.0,6.68,264.0,7.21,12.65,47.59359,-54.27349
2019-12-28 22:04:01+00:00,260.0,7.23,261.0,7.6,12.65,47.59359,-54.27349
2019-12-28 22:14:01+00:00,261.0,7.04,259.0,7.69,12.57,47.59359,-54.27349
2019-12-28 22:24:01+00:00,258.0,5.58,256.0,6.34,12.57,47.59359,-54.27349
2019-12-28 22:34:01+00:00,260.0,5.28,265.0,5.86,12.57,47.59359,-54.27349
2019-12-28 22:44:01+00:00,263.0,4.39,259.0,5.3,12.57,47.59359,-54.27349
2019-12-28 22:54:01+00:00,262.0,4.41,260.0,5.4,12.57,47.59359,-54.27349
2019-12-28 23:04:01+00:00,260.0,4.51,262.0,5.19,12.57,47.59359,-54.27349
2019-12-28 23:14:01+00:00,263.0,3.93,263.0,4.41,12.57,47.59359,-54.27349
2019-12-28 23:24:01+00:00,267.0,3.87,266.0,4.23,12.57,47.59359,-54.27349
2019-12-28 23:34:01+00:00,288.0,4.41,285.0,5.2,12.57,47.59359,-54.27349
2019-12-28 23:44:01+00:00,294.0,6.37,290.0,7.84,12.57,47.59359,-54.27349
2019-12-28 23:54:01+00:00,286.0,7.0,289.0,8.9,12.57,47.59359,-54.27349
